Shelbyville, IN

5:41 AM EST on November 21, 2019 (GMT -0500)
Shelbyville Municipal

Weather History for KGEZ - September, 2019

Change the Weather History Date:

Thursday, September 26, 2019

  Actual Average Record
Temperature  
Mean Temperature 63 °F 61 °F  
Max Temperature 77 °F 74 °F 91 °F (2017)
Min Temperature 49 °F 49 °F 37 °F (2000)
Degree Days  
Heating Degree Days 2 5  
Month to date heating degree days 3 54  
Since 1 July heating degree days 3 60  
Cooling Degree Days 0 2  
Month to date cooling degree days 187 89  
Year to date cooling degree days 1248 895  
Growing Degree Days 13 (Base 50)    
Moisture  
Dew Point 50 °F    
Average Humidity 54    
Maximum Humidity 83    
Minimum Humidity 25    
Precipitation  
Precipitation 0.00 in 0.10 in 1.27 in (2003)
Month to date precipitation 0.75 2.72  
Year to date precipitation 32.21 33.00  
Sea Level Pressure  
Sea Level Pressure 29.93 in    
Wind  
Wind Speed 5 mph (NW)    
Max Wind Speed 12 mph    
Max Gust Speed 18 mph    
Visibility 10 miles    
Events      
T = Trace of Precipitation, MM = Missing Value Source: NWS Daily Summary

Daily Weather History Graph

Daily Weather History Graph

Search for Another Location

Airport or City:

Astronomy

Sep. 26, 2019 Rise Set
Actual Time 7:34 AM EDT 7:34 PM EDT
Civil Twilight 7:07 AM EDT 8:00 PM EDT
Nautical Twilight 6:36 AM EDT 8:32 PM EDT
Astronomical Twilight 6:04 AM EDT 9:03 PM EDT
Moon 4:41 AM EDT (9/26) 6:46 PM EDT (9/26)
Length of Visible Light 12h 53m
Length of Day
11h 59m
Waning Crescent, 7% of the Moon is Illuminated
Sep 26
Waning Crescent
Sep 28
New
Oct 5
First Quarter
Oct 13
Full
Oct 21
Last Quarter

Hourly Weather History & Observations

Time (EDT) Temp. Dew Point Humidity Pressure Visibility Wind Dir Wind Speed Gust Speed Precip Events Conditions
12:53 AM 72.0 °F 64.0 °F 76% 29.82 in 10.0 mi WSW 3.5 mph - N/A   Overcast
1:53 AM 71.1 °F 64.0 °F 78% 29.82 in 10.0 mi WSW 5.8 mph - N/A   Overcast
2:53 AM 71.1 °F 64.0 °F 78% 29.82 in 10.0 mi NW 8.1 mph - N/A   Overcast
3:53 AM 69.1 °F 53.1 °F 57% 29.83 in 10.0 mi NNW 9.2 mph - N/A   Overcast
4:53 AM 63.0 °F 54.0 °F 72% 29.84 in 10.0 mi NW 3.5 mph - N/A   Scattered Clouds
5:53 AM 63.0 °F 54.0 °F 72% 29.86 in 10.0 mi West 3.5 mph - N/A   Scattered Clouds
6:53 AM 61.0 °F 54.0 °F 78% 29.88 in 10.0 mi WNW 4.6 mph - N/A   Clear
7:53 AM 60.1 °F 53.1 °F 78% 29.91 in 10.0 mi WNW 4.6 mph - N/A   Clear
8:53 AM 63.0 °F 54.0 °F 72% 29.94 in 10.0 mi NW 6.9 mph - N/A   Clear
9:53 AM 66.0 °F 54.0 °F 65% 29.96 in 10.0 mi NW 5.8 mph - N/A   Clear
10:53 AM 70.0 °F 53.1 °F 55% 29.98 in 10.0 mi NNW 6.9 mph - N/A   Clear
11:53 AM 71.1 °F 52.0 °F 51% 29.97 in 10.0 mi WNW 3.5 mph - N/A   Clear
12:53 PM 72.0 °F 46.9 °F 41% 29.98 in 10.0 mi NW 5.8 mph - N/A   Clear
1:53 PM 73.9 °F 46.0 °F 37% 29.97 in 10.0 mi Variable 6.9 mph - N/A   Clear
2:53 PM 75.0 °F 42.1 °F 31% 29.95 in 10.0 mi NW 6.9 mph - N/A   Clear
3:53 PM 75.9 °F 39.9 °F 27% 29.94 in 10.0 mi WSW 9.2 mph - N/A   Clear
4:53 PM 75.9 °F 37.0 °F 24% 29.94 in 10.0 mi NNW 4.6 mph - N/A   Clear
5:53 PM 75.0 °F 37.0 °F 25% 29.95 in 10.0 mi WNW 8.1 mph - N/A   Clear
6:53 PM 71.1 °F 42.1 °F 35% 29.96 in 10.0 mi WNW 3.5 mph - N/A   Clear
7:53 PM 59.0 °F 48.9 °F 69% 29.96 in 10.0 mi North 4.6 mph - N/A   Clear
8:53 PM 55.9 °F 48.0 °F 75% 29.98 in 10.0 mi Calm Calm - N/A   Clear
9:53 PM 54.0 °F 46.9 °F 77% 29.98 in 10.0 mi ENE 6.9 mph - N/A   Clear
10:53 PM 51.1 °F 46.0 °F 83% 29.99 in 10.0 mi Calm Calm - N/A   Clear
11:53 PM 51.1 °F 45.0 °F 80% 29.99 in 10.0 mi Calm Calm - N/A   Clear